Time,TemperatureF,DewpointF,PressureIn,WindDirection,WindDirectionDegrees,WindSpeedMPH,WindSpeedGustMPH,Humidity,HourlyPrecipIn,Conditions,Clouds,dailyrainin,SoftwareType,DateUTC
2013-08-12 00:02:00,68.0,65.0,30.02,South,180,0.0,0.0,89,0.00,,,0.00,,2013-08-12 05:02:00,
2013-08-12 00:11:00,68.0,65.0,30.02,South,180,0.0,0.0,89,0.00,,,0.00,,2013-08-12 05:11:00,
2013-08-12 00:22:00,68.0,65.0,30.02,South,180,0.0,0.0,89,0.00,,,0.00,,2013-08-12 05:22:00,
2013-08-12 00:32:00,68.0,64.0,30.02,SSW,205,0.0,0.0,88,0.00,,,0.00,,2013-08-12 05:32:00,
2013-08-12 00:43:00,68.0,64.0,30.02,SSW,205,0.0,0.0,88,0.00,,,0.00,,2013-08-12 05:43:00,
2013-08-12 00:52:00,67.0,63.0,30.02,SSW,205,0.0,0.0,87,0.00,,,0.00,,2013-08-12 05:52:00,
2013-08-12 01:01:00,67.0,63.0,30.02,SSW,205,0.0,0.0,88,0.00,,,0.00,,2013-08-12 06:01:00,
2013-08-12 01:11:00,67.0,63.0,30.02,SSW,205,0.0,0.0,88,0.00,,,0.00,,2013-08-12 06:11:00,
2013-08-12 01:22:00,67.0,64.0,30.02,SSW,205,0.0,0.0,89,0.00,,,0.00,,2013-08-12 06:22:00,
2013-08-12 01:32:00,66.0,63.0,30.01,SSW,205,0.0,0.0,90,0.00,,,0.00,,2013-08-12 06:32:00,
2013-08-12 01:42:00,66.0,63.0,30.01,SSW,205,0.0,0.0,90,0.00,,,0.00,,2013-08-12 06:42:00,
2013-08-12 01:52:00,66.0,63.0,30.01,SSW,205,0.0,0.0,90,0.00,,,0.00,,2013-08-12 06:52:00,
2013-08-12 02:01:00,66.0,63.0,30.01,SSW,205,0.0,0.0,90,0.00,,,0.00,,2013-08-12 07:01:00,
2013-08-12 02:12:00,66.0,63.0,30.01,SSW,205,0.0,0.0,90,0.00,,,0.00,,2013-08-12 07:12:00,
2013-08-12 02:22:00,66.0,63.0,30.00,SSW,205,0.0,0.0,90,0.00,,,0.00,,2013-08-12 07:22:00,
2013-08-12 02:33:00,66.0,63.0,30.00,SSW,205,0.0,0.0,90,0.00,,,0.00,,2013-08-12 07:33:00,
2013-08-12 02:43:00,66.0,63.0,30.00,SSW,205,0.0,0.0,90,0.00,,,0.00,,2013-08-12 07:43:00,
2013-08-12 02:52:00,66.0,63.0,30.00,SSW,205,0.0,0.0,90,0.00,,,0.00,,2013-08-12 07:52:00,
2013-08-12 03:02:00,65.0,62.0,29.99,SSW,205,0.0,0.0,91,0.00,,,0.00,,2013-08-12 08:02:00,
2013-08-12 03:11:00,65.0,62.0,29.99,SSW,205,0.0,0.0,91,0.00,,,0.00,,2013-08-12 08:11:00,
2013-08-12 03:22:00,65.0,62.0,29.99,SSW,205,0.0,0.0,91,0.00,,,0.00,,2013-08-12 08:22:00,
2013-08-12 03:33:00,65.0,63.0,29.99,SSW,205,0.0,0.0,92,0.00,,,0.00,,2013-08-12 08:33:00,
2013-08-12 03:43:00,65.0,63.0,29.99,SSW,205,0.0,0.0,92,0.00,,,0.00,,2013-08-12 08:43:00,
2013-08-12 03:53:00,65.0,63.0,29.99,SSW,205,0.0,0.0,92,0.00,,,0.00,,2013-08-12 08:53:00,
2013-08-12 04:02:00,65.0,63.0,29.99,SSW,205,0.0,0.0,92,0.00,,,0.00,,2013-08-12 09:02:00,
2013-08-12 04:11:00,65.0,63.0,29.99,SSW,205,0.0,0.0,92,0.00,,,0.00,,2013-08-12 09:11:00,
2013-08-12 04:22:00,64.0,62.0,29.99,SSW,205,0.0,0.0,92,0.00,,,0.00,,2013-08-12 09:22:00,
2013-08-12 04:32:00,64.0,62.0,29.98,SSW,205,0.0,0.0,93,0.00,,,0.00,,2013-08-12 09:32:00,
2013-08-12 04:43:00,64.0,62.0,29.98,SSW,205,0.0,0.0,93,0.00,,,0.00,,2013-08-12 09:43:00,
2013-08-12 04:53:00,64.0,62.0,29.98,SSW,205,0.0,0.0,93,0.00,,,0.00,,2013-08-12 09:53:00,
2013-08-12 05:02:00,64.0,62.0,29.97,SSW,205,0.0,0.0,93,0.00,,,0.00,,2013-08-12 10:02:00,
2013-08-12 05:12:00,64.0,62.0,29.97,SSW,205,0.0,0.0,93,0.00,,,0.00,,2013-08-12 10:12:00,
2013-08-12 05:22:00,64.0,62.0,29.97,SSW,205,0.0,0.0,93,0.00,,,0.00,,2013-08-12 10:22:00,
2013-08-12 05:32:00,64.0,62.0,29.98,SSW,205,0.0,0.0,93,0.00,,,0.00,,2013-08-12 10:32:00,
2013-08-12 05:43:00,64.0,62.0,29.98,SSW,205,0.0,0.0,93,0.00,,,0.00,,2013-08-12 10:43:00,
2013-08-12 05:52:00,64.0,62.0,29.97,SSW,205,0.0,0.0,93,0.00,,,0.00,,2013-08-12 10:52:00,
2013-08-12 06:02:00,63.0,61.0,29.97,SSW,205,0.0,0.0,92,0.00,,,0.00,,2013-08-12 11:02:00,
2013-08-12 06:12:00,63.0,61.0,29.97,SSW,205,0.0,0.0,92,0.00,,,0.00,,2013-08-12 11:12:00,
2013-08-12 06:22:00,63.0,61.0,29.98,SSW,205,0.0,0.0,93,0.00,,,0.00,,2013-08-12 11:22:00,
2013-08-12 06:32:00,63.0,61.0,29.97,SSW,205,0.0,0.0,93,0.00,,,0.00,,2013-08-12 11:32:00,
2013-08-12 06:42:00,63.0,61.0,29.97,SSW,205,0.0,0.0,93,0.00,,,0.00,,2013-08-12 11:42:00,
2013-08-12 06:53:00,63.0,61.0,29.97,SSW,205,0.0,0.0,93,0.00,,,0.00,,2013-08-12 11:53:00,
2013-08-12 07:02:00,63.0,61.0,29.97,SSW,205,0.0,0.0,93,0.00,,,0.00,,2013-08-12 12:02:00,
2013-08-12 07:11:00,63.0,61.0,29.97,SSW,205,0.0,0.0,93,0.00,,,0.00,,2013-08-12 12:11:00,
2013-08-12 07:22:00,65.0,62.0,29.96,SSW,205,0.0,0.0,91,0.00,,,0.00,,2013-08-12 12:22:00,
2013-08-12 07:32:00,66.0,63.0,29.96,South,181,0.0,0.0,89,0.00,,,0.00,,2013-08-12 12:32:00,
2013-08-12 07:43:00,66.0,63.0,29.96,South,181,0.0,0.0,89,0.00,,,0.00,,2013-08-12 12:43:00,
2013-08-12 07:52:00,67.0,63.0,29.95,South,180,0.0,0.0,86,0.00,,,0.00,,2013-08-12 12:52:00,
2013-08-12 08:01:00,68.0,63.0,29.95,SSW,195,0.0,1.0,84,0.00,,,0.00,,2013-08-12 13:01:00,
2013-08-12 08:11:00,68.0,63.0,29.95,SSW,195,0.0,1.0,84,0.00,,,0.00,,2013-08-12 13:11:00,
2013-08-12 08:22:00,69.0,64.0,29.95,SW,229,0.0,0.0,84,0.00,,,0.00,,2013-08-12 13:22:00,
2013-08-12 08:32:00,70.0,65.0,29.95,SSW,192,0.0,3.0,84,0.00,,,0.00,,2013-08-12 13:32:00,
2013-08-12 08:43:00,70.0,65.0,29.95,SSW,192,0.0,3.0,84,0.00,,,0.00,,2013-08-12 13:43:00,
2013-08-12 08:53:00,72.0,66.0,29.94,SSE,167,0.0,5.0,82,0.00,,,0.00,,2013-08-12 13:53:00,
2013-08-12 09:02:00,73.0,67.0,29.94,South,187,2.0,6.0,81,0.00,,,0.00,,2013-08-12 14:02:00,
2013-08-12 09:11:00,73.0,67.0,29.94,South,187,2.0,6.0,81,0.00,,,0.00,,2013-08-12 14:11:00,
2013-08-12 09:22:00,74.0,67.0,29.94,SW,236,1.0,8.0,78,0.00,,,0.00,,2013-08-12 14:22:00,
2013-08-12 09:32:00,75.0,67.0,29.94,SSW,206,1.0,5.0,76,0.00,,,0.00,,2013-08-12 14:32:00,
2013-08-12 09:42:00,75.0,67.0,29.94,SSW,206,1.0,5.0,76,0.00,,,0.00,,2013-08-12 14:42:00,
2013-08-12 09:53:00,77.0,67.0,29.94,NE,38,0.0,4.0,72,0.00,,,0.00,,2013-08-12 14:53:00,
2013-08-12 10:02:00,77.0,67.0,29.94,East,86,2.0,6.0,71,0.00,,,0.00,,2013-08-12 15:02:00,
2013-08-12 10:11:00,77.0,67.0,29.94,East,86,2.0,6.0,71,0.00,,,0.00,,2013-08-12 15:11:00,
2013-08-12 10:22:00,78.0,67.0,29.94,South,180,2.0,5.0,69,0.00,,,0.00,,2013-08-12 15:22:00,
2013-08-12 10:33:00,79.0,67.0,29.94,SSW,198,1.0,8.0,67,0.00,,,0.00,,2013-08-12 15:33:00,
2013-08-12 10:43:00,79.0,67.0,29.94,SSW,198,1.0,8.0,67,0.00,,,0.00,,2013-08-12 15:43:00,
2013-08-12 10:52:00,79.0,68.0,29.94,West,269,2.0,8.0,68,0.00,,,0.00,,2013-08-12 15:52:00,
2013-08-12 11:01:00,79.0,68.0,29.94,NE,34,1.0,5.0,68,0.00,,,0.00,,2013-08-12 16:01:00,
2013-08-12 11:11:00,79.0,68.0,29.94,NE,34,1.0,5.0,68,0.00,,,0.00,,2013-08-12 16:11:00,
2013-08-12 11:22:00,79.0,67.0,29.94,West,269,1.0,5.0,67,0.00,,,0.00,,2013-08-12 16:22:00,
2013-08-12 11:33:00,80.0,68.0,29.94,NNW,344,1.0,7.0,66,0.00,,,0.00,,2013-08-12 16:33:00,
2013-08-12 11:42:00,80.0,68.0,29.94,NNW,344,1.0,7.0,66,0.00,,,0.00,,2013-08-12 16:42:00,
2013-08-12 11:53:00,80.0,67.0,29.94,SSW,200,1.0,6.0,65,0.00,,,0.00,,2013-08-12 16:53:00,
2013-08-12 12:02:00,81.0,69.0,29.93,NNE,33,1.0,5.0,67,0.00,,,0.00,,2013-08-12 17:02:00,
2013-08-12 12:11:00,81.0,69.0,29.93,NNE,33,1.0,5.0,67,0.00,,,0.00,,2013-08-12 17:11:00,
2013-08-12 12:22:00,82.0,69.0,29.92,SSW,200,1.0,4.0,65,0.00,,,0.00,,2013-08-12 17:22:00,
2013-08-12 12:32:00,82.0,68.0,29.92,SSW,202,2.0,7.0,63,0.00,,,0.00,,2013-08-12 17:32:00,
2013-08-12 12:43:00,82.0,68.0,29.92,SSW,202,2.0,7.0,63,0.00,,,0.00,,2013-08-12 17:43:00,
2013-08-12 12:52:00,82.0,69.0,29.91,SW,234,3.0,7.0,64,0.00,,,0.00,,2013-08-12 17:52:00,
2013-08-12 13:02:00,82.0,69.0,29.91,SSE,161,1.0,5.0,66,0.00,,,0.00,,2013-08-12 18:02:00,
2013-08-12 13:11:00,82.0,69.0,29.91,SSE,161,1.0,5.0,66,0.00,,,0.00,,2013-08-12 18:11:00,
2013-08-12 13:24:00,82.0,70.0,29.91,SSW,208,1.0,5.0,68,0.00,,,0.00,,2013-08-12 18:24:00,
2013-08-12 13:32:00,82.0,69.0,29.90,North,355,1.0,5.0,66,0.00,,,0.00,,2013-08-12 18:32:00,
2013-08-12 13:43:00,82.0,69.0,29.90,North,355,1.0,5.0,66,0.00,,,0.00,,2013-08-12 18:43:00,
2013-08-12 13:52:00,82.0,70.0,29.90,WSW,250,2.0,6.0,67,0.00,,,0.00,,2013-08-12 18:52:00,
2013-08-12 14:02:00,81.0,69.0,29.89,SSE,167,1.0,7.0,68,0.00,,,0.00,,2013-08-12 19:02:00,
2013-08-12 14:11:00,81.0,69.0,29.89,SSE,167,1.0,7.0,68,0.00,,,0.00,,2013-08-12 19:11:00,
2013-08-12 14:22:00,81.0,69.0,29.89,NW,322,0.0,5.0,68,0.00,,,0.00,,2013-08-12 19:22:00,
2013-08-12 14:33:00,81.0,70.0,29.89,West,269,1.0,6.0,70,0.00,,,0.00,,2013-08-12 19:33:00,
2013-08-12 14:43:00,81.0,70.0,29.89,West,269,1.0,6.0,70,0.00,,,0.00,,2013-08-12 19:43:00,
2013-08-12 14:52:00,81.0,70.0,29.88,SW,236,0.0,4.0,69,0.00,,,0.00,,2013-08-12 19:52:00,
2013-08-12 15:02:00,81.0,70.0,29.88,North,355,1.0,7.0,70,0.00,,,0.00,,2013-08-12 20:02:00,
2013-08-12 15:11:00,81.0,70.0,29.88,North,355,1.0,7.0,70,0.00,,,0.00,,2013-08-12 20:11:00,
2013-08-12 15:22:00,80.0,69.0,29.88,NNW,339,1.0,5.0,70,0.00,,,0.00,,2013-08-12 20:22:00,
2013-08-12 15:32:00,80.0,70.0,29.88,NW,324,1.0,4.0,71,0.00,,,0.00,,2013-08-12 20:32:00,
2013-08-12 15:42:00,80.0,70.0,29.88,NW,324,1.0,4.0,71,0.00,,,0.00,,2013-08-12 20:42:00,
2013-08-12 15:52:00,79.0,70.0,29.88,NE,49,1.0,6.0,73,0.00,,,0.00,,2013-08-12 20:52:00,
2013-08-12 16:01:00,79.0,70.0,29.87,ENE,61,1.0,6.0,75,0.00,,,0.00,,2013-08-12 21:01:00,
2013-08-12 16:12:00,79.0,70.0,29.87,ENE,61,1.0,6.0,75,0.00,,,0.00,,2013-08-12 21:12:00,
2013-08-12 16:22:00,79.0,70.0,29.88,West,273,1.0,6.0,75,0.00,,,0.00,,2013-08-12 21:22:00,
2013-08-12 16:32:00,78.0,69.0,29.87,WNW,284,2.0,5.0,75,0.00,,,0.00,,2013-08-12 21:32:00,
2013-08-12 16:43:00,78.0,69.0,29.87,WNW,284,2.0,5.0,75,0.00,,,0.00,,2013-08-12 21:43:00,
2013-08-12 16:52:00,79.0,70.0,29.86,North,5,2.0,8.0,73,0.00,,,0.00,,2013-08-12 21:52:00,
2013-08-12 17:02:00,80.0,71.0,29.85,NNE,24,4.0,9.0,74,0.00,,,0.00,,2013-08-12 22:02:00,
2013-08-12 17:11:00,80.0,71.0,29.85,NNE,24,4.0,9.0,74,0.00,,,0.00,,2013-08-12 22:11:00,
2013-08-12 17:22:00,80.0,71.0,29.85,West,261,3.0,9.0,73,0.00,,,0.00,,2013-08-12 22:22:00,
2013-08-12 17:32:00,80.0,71.0,29.85,West,261,2.0,7.0,73,0.00,,,0.00,,2013-08-12 22:32:00,
2013-08-12 17:43:00,80.0,71.0,29.85,West,261,2.0,7.0,73,0.00,,,0.00,,2013-08-12 22:43:00,
2013-08-12 17:53:00,81.0,71.0,29.85,NW,304,3.0,7.0,72,0.00,,,0.00,,2013-08-12 22:53:00,
2013-08-12 18:02:00,80.0,70.0,29.84,NW,313,2.0,9.0,71,0.00,,,0.00,,2013-08-12 23:02:00,
2013-08-12 18:11:00,80.0,70.0,29.84,NW,313,2.0,9.0,71,0.00,,,0.00,,2013-08-12 23:11:00,
2013-08-12 18:22:00,80.0,71.0,29.84,NW,321,2.0,6.0,73,0.00,,,0.00,,2013-08-12 23:22:00,
2013-08-12 18:43:00,80.0,71.0,29.84,NNW,331,0.0,5.0,75,0.00,,,0.00,,2013-08-12 23:43:00,
2013-08-12 18:53:00,80.0,71.0,29.84,NNE,19,0.0,5.0,74,0.00,,,0.00,,2013-08-12 23:53:00,
2013-08-12 19:12:00,80.0,71.0,29.84,WSW,240,1.0,4.0,73,0.00,,,0.00,,2013-08-13 00:12:00,
2013-08-12 19:24:00,79.0,70.0,29.84,WNW,294,0.0,3.0,75,0.00,,,0.00,,2013-08-13 00:24:00,
2013-08-12 19:45:00,79.0,71.0,29.84,North,9,0.0,1.0,77,0.00,,,0.00,,2013-08-13 00:45:00,
2013-08-12 19:54:00,77.0,70.0,29.84,North,9,0.0,2.0,80,0.00,,,0.00,,2013-08-13 00:54:00,
2013-08-12 20:13:00,76.0,70.0,29.84,NNW,332,0.0,2.0,82,0.00,,,0.00,,2013-08-13 01:13:00,
2013-08-12 20:23:00,75.0,70.0,29.85,NW,317,0.0,2.0,84,0.00,,,0.00,,2013-08-13 01:23:00,
2013-08-12 20:42:00,74.0,70.0,29.85,NW,317,0.0,0.0,86,0.00,,,0.00,,2013-08-13 01:42:00,
2013-08-12 20:55:00,73.0,69.0,29.85,NW,317,0.0,0.0,86,0.00,,,0.00,,2013-08-13 01:55:00,
2013-08-12 21:11:00,73.0,69.0,29.86,NW,317,0.0,0.0,87,0.00,,,0.00,,2013-08-13 02:11:00,
2013-08-12 21:21:00,72.0,67.0,29.87,NW,317,0.0,0.0,85,0.00,,,0.00,,2013-08-13 02:21:00,
2013-08-12 21:43:00,71.0,67.0,29.87,NW,317,0.0,0.0,86,0.00,,,0.00,,2013-08-13 02:43:00,
2013-08-12 21:52:00,71.0,66.0,29.88,NW,317,0.0,0.0,85,0.00,,,0.00,,2013-08-13 02:52:00,
2013-08-12 22:11:00,70.0,66.0,29.88,NW,318,0.0,0.0,86,0.00,,,0.00,,2013-08-13 03:11:00,
2013-08-12 22:22:00,70.0,66.0,29.88,NW,318,0.0,0.0,87,0.00,,,0.00,,2013-08-13 03:22:00,
2013-08-12 22:43:00,69.0,65.0,29.88,NW,318,0.0,0.0,87,0.00,,,0.00,,2013-08-13 03:43:00,
2013-08-12 22:54:00,69.0,65.0,29.89,NW,318,0.0,0.0,87,0.00,,,0.00,,2013-08-13 03:54:00,
2013-08-12 23:12:00,68.0,64.0,29.89,NW,318,0.0,0.0,88,0.00,,,0.00,,2013-08-13 04:12:00,
2013-08-12 23:23:00,68.0,64.0,29.89,NW,318,0.0,0.0,88,0.00,,,0.00,,2013-08-13 04:23:00,
2013-08-12 23:42:00,69.0,64.0,29.89,North,10,0.0,0.0,85,0.00,,,0.00,,2013-08-13 04:42:00,
2013-08-12 23:53:00,70.0,65.0,29.89,North,5,0.0,0.0,84,0.00,,,0.00,,2013-08-13 04:53:00,